Location: Unspecified
(0.0000°N, 0.0000°E)
Time: 07:15:26
(UTC+00:00)

AO-40 - Pass Details

Date: 05 February 2022
Orbit: 908 x 58912 km, 6.9° (Epoch: 25 May)

Event Time Altitude Azimuth Distance (km) Brightness Sun altitude
Rises 13:38:39 0° 85° (E) 48,599 ? 63.8°
Reaches altitude 10° 14:37:03 10° 85° (E) 53,015 ? 51.3°
Maximum altitude 21:09:17 87° 358° (N) 57,104 ? -41.8°
Drops below altitude 10° 04:39:07 10° 104° (ESE) 3,643 ? -22.8°
Sets 04:40:50 0° 100° (E) 4,223 ? -22.4°
